Flag for U.S.A. Weather past 2 weeks in Oberlin, Ohio, U.S.A.

Now
48 °F

Partly sunny.


Feels Like: 42 °F
Forecast: 37 / 52 °F
Wind: 15 mph from Northeast

Location: Lorain County Regional Airport

Current Time: Apr 25, 2015 at 4:53:37 PM

Latest Report: Apr 25, 2015 at 3:53 PM


Visibility: 10 mi

Pressure: 29.78 "Hg

Humidity: 43%

Dew point: 26 °F

Location of OberlinLocation

Historic Weather in Oberlin — Graph

°F

Oberlin temperature yesterday

Maximum temperature yesterday: 51 °F (at 5:53 PM)
Minimum temperature yesterday: 27 °F (at 4:53 AM)
Average temperature yesterday: 41 °F

Past Weeks' High & Low Weather Summary

 TemperatureHumidityPressure
High78 °F (Apr 13, 2:53 PM)100% (Apr 17, 3:53 AM)30.35 "Hg (Apr 17, 3:53 AM)
Low27 °F (Apr 24, 4:53 AM)26% (Apr 15, 2:53 PM)29.35 "Hg (Apr 20, 3:53 AM)
Average51 °F62%29.99 "Hg
* Reported Apr 10 2:53 PM — Apr 25 2:53 PM, Oberlin, Weather by CustomWeather, © 2015

Note: Actual official high and low records may vary slightly from our data, if they occured in-between our weather recording intervals... More about our weather records

Advertising

Oberlin weather history for previous 24 hours

 ConditionsComfort  
Time TempWeatherWind HumidityBarometerVisibility
2:53 PM
Sat, Apr 25
49 °FScattered clouds.14 mph44%29.80 "Hg10 mi
1:53 PM47 °FSunny.15 mph54%29.83 "Hg10 mi
12:53 PM48 °FSunny.13 mph56%29.86 "Hg10 mi
11:53 AM47 °FPartly sunny.12 mph66%29.89 "Hg10 mi
10:53 AM44 °FOvercast.7 mph73%29.93 "Hg10 mi
9:53 AM43 °FPartly sunny.10 mph82%29.93 "Hg10 mi
8:53 AM40 °FMostly cloudy.9 mph97%29.93 "Hg10 mi
7:53 AM39 °FMostly cloudy.10 mph100%29.93 "Hg10 mi
6:53 AM39 °FMostly cloudy.9 mph100%29.95 "Hg10 mi
5:53 AM39 °FLight rain. Overcast.7 mph100%29.97 "Hg7 mi
4:53 AM39 °FLight rain. Fog.No wind93%30.00 "Hg5 mi
3:53 AM39 °FLight rain. Fog.3 mph86%30.01 "Hg6 mi
2:53 AM41 °FLight rain. Mostly cloudy.No wind65%30.03 "Hg8 mi
1:53 AM42 °FLight rain. Overcast.6 mph55%30.01 "Hg10 mi
12:53 AM42 °FMostly cloudy.5 mph57%30.00 "Hg10 mi
11:53 PM
Fri, Apr 24
43 °FPassing clouds.6 mph51%30.00 "Hg10 mi
10:53 PM41 °FClear.6 mph58%30.00 "Hg10 mi
9:53 PM41 °FClear.6 mph60%30.01 "Hg10 mi
8:53 PM43 °FSunny.8 mph58%30.01 "Hg10 mi
6:53 PM51 °FSunny.6 mph36%30.02 "Hg10 mi
5:53 PM51 °FSunny.7 mph36%30.03 "Hg10 mi
4:53 PM50 °FSunny.6 mph38%30.05 "Hg10 mi
Weather by CustomWeather, © 2015

See weather overviewHow to use our weather pages